TimeCDT,TemperatureF,Dew PointF,Humidity,Sea Level PressureIn,VisibilityMPH,Wind Direction,Wind SpeedMPH,Gust SpeedMPH,PrecipitationIn,Events,Conditions,WindDirDegrees,DateUTC
12:15 AM,78.8,73.4,83,30.20,10.0,Calm,Calm,-,N/A,,Clear,0,2013-07-18 05:15:00
12:35 AM,78.8,73.4,83,30.19,10.0,Calm,Calm,-,N/A,,Clear,0,2013-07-18 05:35:00
12:55 AM,78.8,73.4,83,30.18,10.0,Calm,Calm,-,N/A,,Clear,0,2013-07-18 05:55:00
1:15 AM,78.8,73.4,83,30.18,10.0,North,3.5,-,N/A,,Clear,350,2013-07-18 06:15:00
1:35 AM,77.0,71.6,83,30.17,10.0,Calm,Calm,-,N/A,,Clear,0,2013-07-18 06:35:00
1:55 AM,77.0,71.6,83,30.16,10.0,Calm,Calm,-,N/A,,Clear,0,2013-07-18 06:55:00
2:15 AM,78.8,71.6,78,30.16,10.0,Calm,Calm,-,N/A,,Clear,0,2013-07-18 07:15:00
2:35 AM,77.0,71.6,83,30.16,10.0,North,4.6,-,N/A,,Clear,350,2013-07-18 07:35:00
2:55 AM,77.0,71.6,83,30.15,10.0,Calm,Calm,-,N/A,,Clear,0,2013-07-18 07:55:00
3:15 AM,77.0,71.6,83,30.15,10.0,North,3.5,-,N/A,,Clear,10,2013-07-18 08:15:00
3:35 AM,77.0,73.4,89,30.15,10.0,Calm,Calm,-,N/A,,Clear,0,2013-07-18 08:35:00
3:55 AM,77.0,71.6,83,30.15,10.0,Calm,Calm,-,N/A,,Clear,0,2013-07-18 08:55:00
4:15 AM,75.2,71.6,89,30.15,10.0,North,4.6,-,N/A,,Clear,350,2013-07-18 09:15:00
4:35 AM,77.0,73.4,89,30.14,10.0,North,3.5,-,N/A,,Clear,350,2013-07-18 09:35:00
4:55 AM,75.2,71.6,89,30.15,10.0,Calm,Calm,-,N/A,,Clear,0,2013-07-18 09:55:00
5:15 AM,77.0,73.4,89,30.15,10.0,NNE,3.5,-,N/A,,Clear,30,2013-07-18 10:15:00
5:35 AM,77.0,73.4,89,30.15,10.0,Calm,Calm,-,N/A,,Clear,0,2013-07-18 10:35:00
5:55 AM,77.0,73.4,89,30.15,10.0,Calm,Calm,-,N/A,,Clear,0,2013-07-18 10:55:00
6:15 AM,77.0,73.4,89,30.15,10.0,Calm,Calm,-,N/A,,Clear,0,2013-07-18 11:15:00
6:35 AM,77.0,73.4,89,30.15,10.0,Calm,Calm,-,N/A,,Clear,0,2013-07-18 11:35:00
6:55 AM,77.0,73.4,89,30.15,10.0,Calm,Calm,-,N/A,,Clear,0,2013-07-18 11:55:00
7:15 AM,78.8,73.4,83,30.16,10.0,SSE,5.8,-,N/A,,Clear,150,2013-07-18 12:15:00
7:35 AM,78.8,73.4,83,30.16,10.0,SE,4.6,-,N/A,,Clear,140,2013-07-18 12:35:00
7:55 AM,80.6,73.4,79,30.16,10.0,Calm,Calm,-,N/A,,Clear,0,2013-07-18 12:55:00
8:15 AM,82.4,73.4,74,30.16,10.0,Calm,Calm,-,N/A,,Clear,0,2013-07-18 13:15:00
8:35 AM,82.4,71.6,70,30.17,10.0,Calm,Calm,-,N/A,,Clear,0,2013-07-18 13:35:00
8:55 AM,86.0,73.4,66,30.17,10.0,Calm,Calm,-,N/A,,Clear,0,2013-07-18 13:55:00
9:15 AM,86.0,73.4,66,30.17,10.0,NNE,4.6,-,N/A,,Clear,30,2013-07-18 14:15:00
9:35 AM,86.0,73.4,66,30.17,10.0,Calm,Calm,-,N/A,,Clear,0,2013-07-18 14:35:00
9:55 AM,87.8,73.4,62,30.17,10.0,ENE,3.5,-,N/A,,Clear,70,2013-07-18 14:55:00
10:15 AM,89.6,73.4,59,30.16,10.0,ENE,4.6,-,N/A,,Clear,60,2013-07-18 15:15:00
10:35 AM,89.6,71.6,55,30.16,10.0,NE,8.1,-,N/A,,Clear,40,2013-07-18 15:35:00
10:55 AM,89.6,73.4,59,30.16,10.0,ENE,9.2,-,N/A,,Clear,60,2013-07-18 15:55:00
11:15 AM,89.6,73.4,59,30.16,10.0,NNE,8.1,-,N/A,,Clear,30,2013-07-18 16:15:00
11:35 AM,91.4,73.4,55,30.15,10.0,NE,5.8,-,N/A,,Clear,40,2013-07-18 16:35:00
11:55 AM,91.4,73.4,55,30.13,10.0,NNE,8.1,-,N/A,,Clear,30,2013-07-18 16:55:00
12:15 PM,91.4,73.4,55,30.12,10.0,ENE,9.2,-,N/A,,Clear,60,2013-07-18 17:15:00
12:35 PM,93.2,71.6,49,30.11,10.0,NE,10.4,-,N/A,Thunderstorm,Clear,50,2013-07-18 17:35:00
12:55 PM,93.2,71.6,49,30.09,10.0,NE,9.2,-,N/A,,Clear,40,2013-07-18 17:55:00
1:15 PM,93.2,69.8,46,30.09,10.0,North,6.9,-,N/A,,Scattered Clouds,360,2013-07-18 18:15:00
1:35 PM,91.4,71.6,52,30.07,10.0,North,4.6,-,N/A,,Scattered Clouds,360,2013-07-18 18:35:00
1:55 PM,91.4,71.6,52,30.06,10.0,North,9.2,-,N/A,Thunderstorm,Clear,350,2013-07-18 18:55:00
2:15 PM,89.6,69.8,52,30.05,10.0,WNW,10.4,-,N/A,Thunderstorm,Mostly Cloudy,300,2013-07-18 19:15:00
2:35 PM,77.0,69.8,78,30.15,1.8,East,24.2,34.5,0.18,Rain-Thunderstorm,Heavy Thunderstorms and Rain,90,2013-07-18 19:35:00
2:55 PM,71.6,68.0,88,30.12,1.0,South,8.1,-,0.93,Rain-Thunderstorm,Heavy Thunderstorms and Rain,170,2013-07-18 19:55:00
3:15 PM,71.6,69.8,94,30.12,10.0,SSE,13.8,-,0.03,Rain-Thunderstorm,Thunderstorms and Rain,160,2013-07-18 20:15:00
3:35 PM,71.6,69.8,94,30.10,7.0,SW,8.1,-,0.05,Rain-Thunderstorm,Light Thunderstorms and Rain,220,2013-07-18 20:35:00
3:55 PM,71.6,69.8,94,30.11,10.0,WNW,5.8,-,0.05,Rain-Thunderstorm,Rain,290,2013-07-18 20:55:00
4:15 PM,71.6,69.8,94,30.11,7.0,NW,8.1,-,0.01,Rain-Thunderstorm,Rain,320,2013-07-18 21:15:00
5:15 PM,73.4,69.8,88,30.11,10.0,WNW,11.5,-,0.01,Rain,Light Rain,300,2013-07-18 22:15:00
5:35 PM,73.4,71.6,94,30.11,7.0,NW,9.2,-,0.01,Thunderstorm,Scattered Clouds,310,2013-07-18 22:35:00
5:55 PM,73.4,69.8,88,30.11,7.0,North,8.1,-,0.01,,Clear,350,2013-07-18 22:55:00
6:15 PM,73.4,71.6,94,30.09,7.0,North,9.2,-,N/A,,Scattered Clouds,10,2013-07-18 23:15:00
6:35 PM,73.4,71.6,94,30.08,10.0,NNW,8.1,-,N/A,,Clear,330,2013-07-18 23:35:00
6:55 PM,73.4,71.6,94,30.08,10.0,North,3.5,-,N/A,,Clear,350,2013-07-18 23:55:00
7:15 PM,73.4,71.6,94,30.08,10.0,East,3.5,-,N/A,,Clear,100,2013-07-19 00:15:00
7:35 PM,73.4,71.6,94,30.08,10.0,NE,5.8,-,N/A,,Scattered Clouds,50,2013-07-19 00:35:00
7:55 PM,73.4,69.8,88,30.08,10.0,NNE,5.8,-,N/A,,Scattered Clouds,30,2013-07-19 00:55:00
8:15 PM,71.6,69.8,94,30.08,10.0,North,3.5,-,N/A,,Clear,360,2013-07-19 01:15:00
8:35 PM,71.6,69.8,94,30.07,10.0,North,5.8,-,N/A,,Clear,360,2013-07-19 01:35:00
8:55 PM,71.6,69.8,94,30.07,10.0,North,3.5,-,N/A,,Clear,350,2013-07-19 01:55:00
9:15 PM,71.6,68.0,88,30.07,10.0,North,3.5,-,N/A,,Clear,350,2013-07-19 02:15:00
9:35 PM,71.6,69.8,94,30.07,10.0,Calm,Calm,-,N/A,,Clear,0,2013-07-19 02:35:00
9:55 PM,71.6,69.8,94,30.07,10.0,Calm,Calm,-,N/A,,Clear,0,2013-07-19 02:55:00
10:15 PM,71.6,69.8,94,30.07,10.0,Calm,Calm,-,N/A,,Clear,0,2013-07-19 03:15:00
10:35 PM,71.6,69.8,94,30.08,7.0,Calm,Calm,-,N/A,,Scattered Clouds,0,2013-07-19 03:35:00
10:55 PM,71.6,69.8,94,30.08,10.0,Calm,Calm,-,N/A,,Mostly Cloudy,0,2013-07-19 03:55:00
11:15 PM,71.6,69.8,94,30.09,7.0,Calm,Calm,-,N/A,,Overcast,0,2013-07-19 04:15:00
11:35 PM,71.6,69.8,94,30.09,7.0,Calm,Calm,-,N/A,,Overcast,0,2013-07-19 04:35:00
11:55 PM,71.6,69.8,94,30.08,7.0,Calm,Calm,-,N/A,,Overcast,0,2013-07-19 04:55:00